SCP
0 0 0 0 0 0 0 0 0 0 0 0 0 0 0 0 0 0 0 0 0 0 0 -0 -0 -0 0 -0 -0 -0 -0 -0 -0 -0 -0 -0 -0 -0 -0 -0 -0 -0 -0 -0 -0 -0 -0 -0 -0
0 0 0 0 0 0 0 0 0 0 0 0 0 0 0 0 0 0 0 0 0 0 0 0 -0 -0 -0 -0 -0 -0 -0 -0 -0 -0 -0 -0 -0 -0 -0 -0 -0 -0 -0 -0 -0 -0 -0 -0 -0
0 0 0 0 0 0 0 0 0 0 0 0 0 0 0 0 0 0 0 0 0 0 0 0 -0 0 -0 -0 -0 -0 -0 -0 -0 -0 -0 -0 -0 -0 -0 -0 -0 -0 -0 -0 -0 -0 -0 -0 -0
0 0 0 0 0 0 0 0 0 0 0 0 0 0 0 0 0 0 0 0 0 0 0 0 0 0 -0 -0 -0 -0 -0 -0 -0 -0 -0 -0 -0 -0 -0 -0 -0 -0 -0 -0 -0 -0 -0 -0 -0
0 0 0 0 0 0 0 0 0 0 0 0 0 0 0 0 0 0 0 0 0 0 0 0 0 0 0 -0 -0 -0 -0 -0 -0 -0 -0 -0 -0 -0 -0 -0 -0 -0 -0 -0 -0 -0 -0 -0 -0
0 0 0 0 0 0 0 0 0 0 0 0 0 0 0 0 0 0 0 0 0 0 0 0 0 0 0 -0 -0 -0 -0 -0 -0 -0 -0 -0 -0 -0 -0 -0 -0 -0 -0 -0 -0 -0 -0 -0 -0
0 0 0 0 0 0 0 0 0 0 0 0 0 0 0 0 0 0 0 0 0 0 0 0 0 0 0 -0 -0 0 0 -0 -0 -0 -0 -0 -0 -0 -0 -0 -0 -0 -0 -0 -0 -0 -0 -0 -0
0 0 0 0 0 0 0 0 0 0 0 0 0 0 0 0 0 0 0 0 0 0 0 0 0 0 0 0 0 0 0 0 0 0 0 0 -0 0 -0 -0 -0 -0 -0 -0 0 0 0 -0 -0
-0 -0 -0 0 0 0 0 0 0 0 0 0 0 0 0 0 0 0 0 0 0 0 0 0 0 0 0 0 0 0 0 0 0 0 0 0 0 0 0 0 -0 0 0 0 0 0 0 0 0
0 -0 0 0 0 -0 0 0 0 0 0 0 0 0 0 0 0 0 0 0 0 0 0 0 0 0 0 0 0 0 0 0 0 0 0 0 0 0 0 0 0 0 0 0 0 0 0 0 0
0 0 0 0 0 0 0 0 0 -0 0 0 0 0 0 0 0 0 0 0 0 0 0 0 0 0 0 0 0 0 0 0 0 0 0 0 0 0 0 0 0 0 0 0 0 0 0 0 0
0 0 0 0 0 0 0 0 -0 -0 0 0 0 0 0 0 0 0 0 0 0 0 0 0 0 0 0 0 0 0 0 0 0 0 0 0 0 0 0 0 0 0 0 0 0 0 0 0 0
0 0 0 -0 -0 -0 -0 -0 -0 0 0 0 0 0 0 0 0 0 0 0 0 0 0 0 0 0 0 0 0 0 0 0 0 0 0 0 0 0 0 0 0 0 0 0 0 0 0 0 0
0 0 0 0 0 0 0 -0 0 -0 0 0 0 0 0 0 0 0 0 0 0 0 0 0 0 0 0 0 0 0 0 0 0 0 0 0 0 0 0 0 0 0 0 0 0 0 0 0 0
0 0 0 0 0 0 0 0 -0 -0 -0 0 -0 -0 0 0 0 0 0 0 0 0 0 0 0 0 0 0 0 0 0 0 0 0 0 0 0 0 0 0 0 0 0 0 0 0 0 0 0
0 0 0 0 0 0 0 -0 0 0 0 -0 -0 0 0 -0 -0 -0 0 0 0 0 0 0 0 0 0 0 0 0 0 0 0 0 0 0 0 0 0 0 0 0 0 0 0 0 0 0 0
0 0 0 0 0 0 -0 -0 -0 -0 -0 0 0 0 0 0 0 0 0 0 0 0 0 0 0 0 0 0 0 0 0 0 0 0 0 0 0 0 0 0 0 0 0 0 0 0 0 0 0
0 0 0 0 0 0 -0 -0 0 -0 -0 -0 -0 -0 0 0 0 -0 -0 -0 0 0 0 0 0 0 0 0 0 0 0 0 0 0 0 0 0 0 0 0 0 0 0 0 0 0 0 0 0
0 0 0 0 0 0 0 0 0 0 0 -0 -0 -0 -0 -0 -0 -0 -0 0 -0 -0 0 0 0 0 0 0 0 0 0 0 0 0 0 0 0 0 0 0 0 0 0 0 0 0 0 0 0
0 0 0 0 0 0 0 0 0 0 0 0 0 0 -0 -0 -0 -0 -0 -0 0 0 -0 -0 -0 0 0 0 0 0 0 0 0 0 0 0 0 0 0 0 0 0 0 0 0 0 0 0 0
0 0 0 0 0 0 0 0 0 0 0 0 -0 0 -0 -0 -0 -0 -0 -0 -0 -0 -0 0 0 0 0 0 0 0 0 0 0 0 0 0 0 0 0 0 0 0 0 0 0 0 0 0 -0
0 0 0 0 0 0 0 0 0 0 0 0 -0 -0 -0 -0 -0 -0 -0 -0 -0 -0 -0 -0 -0 -0 0 0 0 0 0 0 0 0 0 0 0 0 0 0 0 0 0 0 0 0 0 0 0
0 0 0 0 0 0 0 0 0 0 0 -0 -0 -0 -0 -0 -0 -0 -0 -0 -0 -0 -0 0 0 0 0 0 0 0 0 0 0 0 0 0 0 0 0 0 0 0 0 0 0 0 0 0 0
0 0 0 0 0 0 0 0 0 0 0 0 0 -0 -0 -0 -0 -0 -0 -0 -0 0 0 0 0 0 0 0 0 0 0 0 0 0 0 0 0 0 0 0 0 0 0 0 0 0 0 0 0
0 0 -0 0 0 0 0 0 0 0 0 0 0 0 0 0 0 0 -0 0 0 0 0 0 0 0 0 0 0 0 0 0 0 0 0 0 0 0 0 0 0 0 0 0 0 0 0 0 0
0 0 0 0 0 0 0 0 0 0 0 0 0 0 0 0 0 0 0 0 0 0 0 0 0 0 0 0 0 0 0 0 0 0 0 0 0 0 0 0 0 0 0 0 0 0 0 0 0
0 0 0 0 0 0 0 0 0 0 0 0 0 0 0 0 0 0 0 0 0 0 0 0 0 0 0 0 0 0 0 0 0 0 0 0 0 0 0 0 0 0 0 0 0 0 0 0 0
0 0 0 0 0 0 0 0 0 0 0 0 0 0 0 0 0 0 0 0 0 0 0 0 0 0 0 0 0 0 0 0 0 0 0 0 0 0 0 0 0 0 0 0 0 0 0 0 0
0 0 0 0 0 0 0 0 0 0 0 0 0 0 0 0 0 0 0 0 0 0 0 0 0 0 0 0 0 0 0 0 0 0 0 0 0 0 0 0 0 0 0 0 0 0 0 0 0
0 0 0 0 0 0 0 0 0 0 0 0 0 0 0 0 0 0 0 0 0 0 0 0 0 0 0 0 0 0 0 0 0 0 0 0 0 0 0 0 0 0 0 0 0 0 0 0 0
Wind_Speed_500mb
14 7 14 17 12 9 22 10 4 13 8 5 8 8 13 17 10 3 5 11 13 23 38 38 22 28 38 24 13 21 27 30 32 28 23 19 23 24 26 28 25 19 13 10 14 13 7 2 4
12 6 13 5 11 24 13 4 13 9 10 12 11 7 15 11 12 4 10 3 15 25 35 59 58 27 38 26 28 28 31 28 27 29 26 25 22 19 18 16 13 9 8 15 17 15 4 1 4
7 8 10 4 7 21 9 8 9 8 18 7 7 16 9 8 9 4 5 3 12 23 30 57 66 57 54 39 36 34 32 32 28 29 29 27 24 20 17 14 10 6 5 7 11 9 7 5 2
4 5 10 16 7 11 11 6 10 4 8 19 11 14 12 18 4 7 7 4 12 20 27 44 60 59 46 48 39 31 29 27 25 25 21 16 12 8 5 3 1 1 2 5 7 8 10 9 8
5 6 7 11 8 5 11 8 16 8 6 13 17 8 6 1 7 5 2 6 13 18 23 32 47 53 44 35 29 27 27 24 20 18 15 14 11 7 4 3 3 5 7 7 8 8 8 8 8
7 1 5 7 9 5 5 12 6 14 12 11 10 5 5 5 2 3 3 5 12 16 18 17 32 40 42 34 29 27 21 17 15 14 11 8 6 4 3 4 5 6 8 7 7 7 7 6 6
8 7 9 12 11 6 4 8 7 7 16 11 5 4 5 6 2 9 3 9 10 14 17 18 14 24 27 18 27 26 22 18 13 10 8 7 2 3 5 5 5 7 9 9 10 10 9 7 6
14 8 10 7 8 5 4 3 4 10 5 5 6 4 2 2 5 11 5 7 10 9 12 17 20 21 21 22 20 17 21 23 18 9 4 4 3 5 6 7 7 9 10 10 12 11 13 9 8
10 9 9 6 4 7 4 4 3 6 13 7 5 3 10 12 10 12 11 12 11 12 11 10 15 14 20 22 24 22 22 21 15 8 3 2 3 5 7 8 9 9 10 11 9 8 5 6 6
15 10 7 6 5 8 6 5 4 1 5 7 2 6 10 16 19 13 16 16 18 17 16 13 12 13 17 20 20 26 28 23 19 10 6 4 5 7 8 10 11 10 11 10 10 9 7 5 4
17 11 12 13 19 12 6 8 5 7 2 3 5 7 13 17 17 14 16 22 20 22 20 18 20 19 18 22 23 25 23 21 20 17 11 10 13 11 10 11 10 10 9 8 8 7 6 6 7
19 21 12 9 9 8 7 8 2 7 3 3 4 6 12 17 17 18 18 20 26 21 26 21 21 21 24 23 25 23 23 19 20 17 15 14 11 10 10 11 13 14 14 15 15 15 15 13 12
32 20 25 26 23 22 20 10 10 6 8 8 5 4 12 18 24 22 20 21 25 24 23 28 23 23 20 24 25 26 23 21 19 16 14 16 15 14 16 17 20 22 22 22 23 22 20 17 16
19 29 25 13 9 6 7 6 2 11 12 6 4 5 11 16 20 24 26 24 23 27 26 23 27 24 28 23 24 25 24 21 20 20 21 20 18 18 20 21 24 25 26 27 26 25 22 19 17
35 18 19 10 13 6 6 3 8 16 15 12 15 12 12 14 16 17 18 20 23 22 22 29 27 28 29 29 28 27 26 24 23 24 24 20 18 22 22 23 25 27 27 27 26 26 25 21 16
6 7 4 10 6 14 13 5 18 21 18 16 14 13 13 15 20 22 21 21 24 27 29 28 31 29 28 28 27 25 24 22 22 21 19 18 20 21 21 21 24 26 25 27 29 28 28 25 19
10 8 9 4 8 4 7 6 21 29 26 21 19 20 19 20 26 31 33 34 31 30 29 27 27 27 25 23 22 21 20 18 16 15 16 17 17 19 19 21 24 25 25 26 29 30 31 29 23
12 6 4 5 9 9 7 8 15 32 33 30 26 25 26 28 29 30 36 42 43 42 40 37 34 33 33 30 28 24 19 15 13 11 10 12 14 16 17 19 20 22 24 26 29 30 31 34 29
5 6 9 5 7 11 9 18 13 31 35 35 35 36 37 37 32 32 35 40 45 46 46 45 45 41 37 32 28 24 20 18 17 15 13 12 12 12 14 15 17 19 22 26 27 29 31 32 33
9 8 11 10 6 11 13 35 27 31 45 47 43 43 43 39 39 42 44 44 44 43 42 42 38 36 34 31 27 25 23 21 18 16 14 11 9 9 9 11 13 17 20 22 24 27 31 35 38
11 10 11 10 19 4 27 11 7 18 38 36 49 45 44 48 48 49 53 54 51 54 54 52 48 45 41 36 34 32 30 27 25 21 17 11 8 4 4 6 9 12 15 17 21 24 27 29 32
11 12 18 20 23 6 16 7 8 15 24 42 53 55 56 54 52 52 59 62 62 58 54 53 53 51 47 45 42 39 33 33 29 27 23 18 14 9 6 2 4 8 12 14 17 19 21 24 24
4 8 10 15 12 10 7 4 3 2 17 41 56 65 64 61 65 68 67 66 63 60 60 58 57 56 52 51 48 45 44 41 38 35 30 26 22 19 15 10 7 8 9 12 14 17 19 20 23
6 11 8 4 5 4 8 10 8 10 11 7 35 57 63 63 69 70 69 66 68 66 67 67 65 62 61 58 55 53 51 49 47 43 40 37 33 29 24 18 15 14 14 14 16 18 19 21 24
4 7 6 5 3 5 4 10 21 15 15 11 9 37 52 60 68 76 78 78 76 78 77 75 74 73 68 65 64 61 58 55 52 49 47 45 39 36 31 27 23 21 21 20 20 21 23 27 29
5 2 3 10 9 15 4 12 5 6 9 16 28 22 28 55 71 82 85 84 82 82 82 83 83 81 77 76 72 68 64 63 60 56 53 50 46 41 38 34 31 29 28 26 26 27 28 31 33
6 3 6 9 3 6 5 13 29 5 25 32 33 23 38 46 70 83 86 89 88 87 89 88 87 84 82 81 76 75 72 71 68 63 59 56 52 49 45 41 39 35 34 33 33 34 33 35 39
5 11 3 2 8 11 11 10 16 10 10 4 14 39 36 46 51 71 86 94 95 93 90 90 90 89 85 84 84 83 80 77 73 69 68 64 57 53 50 46 43 41 39 38 38 40 39 40 44
10 7 3 5 5 10 12 7 16 19 14 9 11 20 33 41 52 65 74 90 95 97 99 99 97 96 94 92 91 91 88 85 80 78 73 69 62 59 54 50 47 46 44 42 42 43 44 45 47
3 7 17 9 11 9 9 23 14 20 10 15 20 19 18 27 39 54 68 74 89 101 105 109 108 106 104 99 98 97 93 90 88 88 82 73 68 64 58 55 53 51 48 45 45 45 48 49 52
Wind_Direction_500mb
288 248 195 183 216 211 209 125 26 104 93 48 55 45 78 48 17 83 176 131 97 99 80 87 108 135 134 144 139 133 123 126 126 128 120 122 113 122 122 122 123 111 77 45 22 46 58 79 45
285 239 191 207 227 201 168 103 105 50 76 103 76 66 46 77 38 33 130 351 122 115 92 88 82 86 142 131 116 110 105 108 125 135 130 127 126 133 142 143 140 127 79 47 49 57 80 125 36
263 208 208 202 228 233 146 90 88 84 43 36 84 64 54 24 7 26 305 343 132 123 106 101 86 71 114 127 131 130 130 129 128 126 133 142 146 146 163 179 192 225 270 100 86 77 80 107 80
197 163 54 236 60 63 59 47 17 66 33 52 71 62 82 41 31 323 317 169 139 135 125 114 109 107 119 142 146 155 144 132 127 122 125 129 129 123 121 131 90 23 20 37 32 43 48 50 29
171 185 90 78 71 59 65 14 17 45 29 30 19 123 97 357 76 308 314 173 159 151 147 129 131 133 139 147 163 170 155 149 142 129 117 116 115 111 84 60 29 13 17 16 9 19 30 41 37
144 324 156 90 83 80 45 8 53 32 36 19 76 51 85 333 182 6 104 144 169 170 166 160 150 160 165 173 190 175 164 160 149 134 128 123 105 84 39 5 9 7 360 350 346 346 356 10 20
57 49 77 96 116 110 12 354 40 40 22 23 37 77 148 341 76 58 97 150 159 177 184 193 183 170 178 208 187 179 176 169 162 151 135 128 112 332 322 323 315 322 326 315 311 315 316 327 340
85 69 106 74 155 113 12 39 58 95 59 17 20 144 203 109 81 82 99 135 150 168 192 194 206 204 212 215 219 217 189 178 178 178 136 264 325 318 312 315 310 320 323 321 308 313 311 301 287
83 93 83 68 90 131 159 175 82 82 104 70 54 181 167 138 108 118 107 113 128 142 167 171 196 203 213 224 216 206 204 181 163 166 158 12 345 59 28 5 12 2 353 360 360 5 350 323 300
43 65 69 8 71 131 98 115 109 125 138 90 102 90 161 166 140 136 123 115 121 123 130 139 126 143 186 193 188 197 196 153 139 145 149 140 86 54 51 58 45 32 24 17 14 15 19 13 26
37 86 127 73 106 123 120 69 52 145 90 167 154 148 151 159 161 153 144 121 117 126 116 124 121 121 148 144 152 158 152 141 138 119 124 109 90 79 73 70 66 48 40 35 29 26 30 50 77
98 77 96 114 112 109 63 84 80 52 221 160 170 172 147 157 166 179 161 152 123 118 123 115 121 129 133 135 140 136 127 130 125 132 123 111 105 99 90 75 73 70 62 59 59 61 61 68 75
77 90 83 96 98 104 129 142 159 166 118 75 75 210 202 169 164 164 168 168 151 134 134 129 123 122 124 135 130 133 133 134 127 124 122 113 109 103 94 85 77 71 66 61 58 59 61 63 68
130 120 132 109 108 135 131 193 306 180 147 138 149 207 219 212 179 171 171 172 160 158 151 140 136 138 133 131 136 138 134 133 127 121 114 104 100 93 88 85 77 71 65 60 58 57 57 61 69
135 107 128 153 166 152 141 142 249 172 174 197 205 199 198 210 214 194 179 166 162 150 149 144 144 144 140 139 139 133 132 128 124 113 106 99 91 84 79 78 77 72 68 64 61 60 59 61 65
199 194 144 65 130 165 207 144 188 184 191 206 213 204 194 201 200 196 194 187 176 167 163 163 153 148 141 136 131 125 119 119 111 104 98 95 89 83 79 78 78 76 74 73 67 60 59 60 63
35 79 45 136 43 302 259 138 176 187 193 201 204 210 215 211 199 195 191 190 188 186 182 178 173 168 164 159 149 142 131 120 112 106 103 97 91 86 78 73 72 69 67 67 66 61 57 56 55
356 30 21 22 357 322 295 265 185 193 202 208 204 205 206 214 213 201 197 193 189 188 186 186 183 176 170 168 167 170 173 170 161 150 132 117 105 90 81 74 69 65 62 59 57 55 54 50 49
30 10 349 323 343 306 265 278 236 201 211 216 212 209 209 209 205 207 203 201 201 200 197 194 193 193 194 193 186 178 170 166 172 170 153 138 123 106 88 76 68 62 55 51 48 46 44 44 44
349 325 355 272 288 308 309 287 264 208 219 216 215 215 213 207 205 205 207 207 209 207 205 201 200 197 195 193 194 193 192 192 185 182 174 159 139 114 93 71 60 52 48 45 41 38 38 37 36
354 360 345 310 312 241 313 256 218 217 222 222 226 224 221 214 209 207 209 210 208 206 204 205 205 204 202 200 201 201 202 203 199 201 200 193 192 162 96 56 43 35 37 34 31 30 33 32 30
329 356 320 319 330 328 1 299 250 210 227 224 227 225 224 218 216 215 214 213 212 210 208 207 208 208 207 208 208 209 212 215 212 213 212 213 219 222 231 281 349 2 8 14 14 14 18 21 16
265 323 316 317 321 302 16 270 216 259 244 234 225 224 223 218 217 217 217 218 217 214 213 212 213 212 210 212 211 211 212 215 218 221 222 226 230 235 241 252 279 303 324 343 345 349 354 354 354
299 285 270 282 306 276 357 344 273 201 221 251 220 221 220 217 219 222 223 221 218 217 218 218 217 217 216 216 216 217 218 219 221 223 226 229 231 235 240 249 259 278 290 302 315 322 328 328 332
259 299 330 323 329 306 21 291 262 275 246 252 242 223 220 220 221 222 223 223 221 219 219 220 220 221 221 221 221 222 223 224 227 229 229 231 235 239 244 247 256 266 275 287 296 303 312 316 318
42 52 151 296 315 309 61 245 257 278 304 261 259 242 226 221 223 226 228 226 225 224 223 224 224 225 223 225 226 226 226 228 230 232 233 235 238 241 245 251 257 264 272 280 287 293 299 303 307
133 215 69 102 98 266 233 268 280 266 258 254 252 245 235 228 225 228 229 230 231 229 229 229 230 230 229 230 230 230 231 231 233 235 237 238 240 241 244 249 255 261 267 273 279 285 292 296 299
248 144 145 136 276 282 231 240 245 277 261 217 248 237 242 240 238 234 233 234 234 234 234 235 235 236 235 234 234 234 235 235 235 236 237 239 241 242 243 246 253 259 265 271 276 283 288 291 296
157 194 221 323 232 244 299 240 222 231 255 238 266 247 242 254 255 249 244 240 238 238 237 237 237 237 236 235 235 236 236 236 237 238 238 239 241 242 243 248 251 255 260 266 271 277 281 286 290
299 204 178 218 209 257 303 256 210 219 247 225 261 255 282 291 287 269 257 250 244 240 239 238 238 237 238 237 236 236 236 237 237 238 238 238 239 242 244 246 248 253 259 264 269 275 280 283 286
Wind_Speed_850mb
14 7 14 17 12 9 22 10 4 13 8 5 8 8 13 17 10 3 5 11 13 23 38 38 22 28 38 24 13 21 27 30 32 28 23 19 23 24 26 28 25 19 13 10 14 13 7 2 4
12 6 13 5 11 24 13 4 13 9 10 12 11 7 15 11 12 4 10 3 15 25 35 59 58 27 38 26 28 28 31 28 27 29 26 25 22 19 18 16 13 9 8 15 17 15 4 1 4
7 8 10 4 7 21 9 8 9 8 18 7 7 16 9 8 9 4 5 3 12 23 30 57 66 57 54 39 36 34 32 32 28 29 29 27 24 20 17 14 10 6 5 7 11 9 7 5 2
4 5 10 16 7 11 11 6 10 4 8 19 11 14 12 18 4 7 7 4 12 20 27 44 60 59 46 48 39 31 29 27 25 25 21 16 12 8 5 3 1 1 2 5 7 8 10 9 8
5 6 7 11 8 5 11 8 16 8 6 13 17 8 6 1 7 5 2 6 13 18 23 32 47 53 44 35 29 27 27 24 20 18 15 14 11 7 4 3 3 5 7 7 8 8 8 8 8
7 1 5 7 9 5 5 12 6 14 12 11 10 5 5 5 2 3 3 5 12 16 18 17 32 40 42 34 29 27 21 17 15 14 11 8 6 4 3 4 5 6 8 7 7 7 7 6 6
8 7 9 12 11 6 4 8 7 7 16 11 5 4 5 6 2 9 3 9 10 14 17 18 14 24 27 18 27 26 22 18 13 10 8 7 2 3 5 5 5 7 9 9 10 10 9 7 6
14 8 10 7 8 5 4 3 4 10 5 5 6 4 2 2 5 11 5 7 10 9 12 17 20 21 21 22 20 17 21 23 18 9 4 4 3 5 6 7 7 9 10 10 12 11 13 9 8
10 9 9 6 4 7 4 4 3 6 13 7 5 3 10 12 10 12 11 12 11 12 11 10 15 14 20 22 24 22 22 21 15 8 3 2 3 5 7 8 9 9 10 11 9 8 5 6 6
15 10 7 6 5 8 6 5 4 1 5 7 2 6 10 16 19 13 16 16 18 17 16 13 12 13 17 20 20 26 28 23 19 10 6 4 5 7 8 10 11 10 11 10 10 9 7 5 4
17 11 12 13 19 12 6 8 5 7 2 3 5 7 13 17 17 14 16 22 20 22 20 18 20 19 18 22 23 25 23 21 20 17 11 10 13 11 10 11 10 10 9 8 8 7 6 6 7
19 21 12 9 9 8 7 8 2 7 3 3 4 6 12 17 17 18 18 20 26 21 26 21 21 21 24 23 25 23 23 19 20 17 15 14 11 10 10 11 13 14 14 15 15 15 15 13 12
32 20 25 26 23 22 20 10 10 6 8 8 5 4 12 18 24 22 20 21 25 24 23 28 23 23 20 24 25 26 23 21 19 16 14 16 15 14 16 17 20 22 22 22 23 22 20 17 16
19 29 25 13 9 6 7 6 2 11 12 6 4 5 11 16 20 24 26 24 23 27 26 23 27 24 28 23 24 25 24 21 20 20 21 20 18 18 20 21 24 25 26 27 26 25 22 19 17
35 18 19 10 13 6 6 3 8 16 15 12 15 12 12 14 16 17 18 20 23 22 22 29 27 28 29 29 28 27 26 24 23 24 24 20 18 22 22 23 25 27 27 27 26 26 25 21 16
6 7 4 10 6 14 13 5 18 21 18 16 14 13 13 15 20 22 21 21 24 27 29 28 31 29 28 28 27 25 24 22 22 21 19 18 20 21 21 21 24 26 25 27 29 28 28 25 19
10 8 9 4 8 4 7 6 21 29 26 21 19 20 19 20 26 31 33 34 31 30 29 27 27 27 25 23 22 21 20 18 16 15 16 17 17 19 19 21 24 25 25 26 29 30 31 29 23
12 6 4 5 9 9 7 8 15 32 33 30 26 25 26 28 29 30 36 42 43 42 40 37 34 33 33 30 28 24 19 15 13 11 10 12 14 16 17 19 20 22 24 26 29 30 31 34 29
5 6 9 5 7 11 9 18 13 31 35 35 35 36 37 37 32 32 35 40 45 46 46 45 45 41 37 32 28 24 20 18 17 15 13 12 12 12 14 15 17 19 22 26 27 29 31 32 33
9 8 11 10 6 11 13 35 27 31 45 47 43 43 43 39 39 42 44 44 44 43 42 42 38 36 34 31 27 25 23 21 18 16 14 11 9 9 9 11 13 17 20 22 24 27 31 35 38
11 10 11 10 19 4 27 11 7 18 38 36 49 45 44 48 48 49 53 54 51 54 54 52 48 45 41 36 34 32 30 27 25 21 17 11 8 4 4 6 9 12 15 17 21 24 27 29 32
11 12 18 20 23 6 16 7 8 15 24 42 53 55 56 54 52 52 59 62 62 58 54 53 53 51 47 45 42 39 33 33 29 27 23 18 14 9 6 2 4 8 12 14 17 19 21 24 24
4 8 10 15 12 10 7 4 3 2 17 41 56 65 64 61 65 68 67 66 63 60 60 58 57 56 52 51 48 45 44 41 38 35 30 26 22 19 15 10 7 8 9 12 14 17 19 20 23
6 11 8 4 5 4 8 10 8 10 11 7 35 57 63 63 69 70 69 66 68 66 67 67 65 62 61 58 55 53 51 49 47 43 40 37 33 29 24 18 15 14 14 14 16 18 19 21 24
4 7 6 5 3 5 4 10 21 15 15 11 9 37 52 60 68 76 78 78 76 78 77 75 74 73 68 65 64 61 58 55 52 49 47 45 39 36 31 27 23 21 21 20 20 21 23 27 29
5 2 3 10 9 15 4 12 5 6 9 16 28 22 28 55 71 82 85 84 82 82 82 83 83 81 77 76 72 68 64 63 60 56 53 50 46 41 38 34 31 29 28 26 26 27 28 31 33
6 3 6 9 3 6 5 13 29 5 25 32 33 23 38 46 70 83 86 89 88 87 89 88 87 84 82 81 76 75 72 71 68 63 59 56 52 49 45 41 39 35 34 33 33 34 33 35 39
5 11 3 2 8 11 11 10 16 10 10 4 14 39 36 46 51 71 86 94 95 93 90 90 90 89 85 84 84 83 80 77 73 69 68 64 57 53 50 46 43 41 39 38 38 40 39 40 44
10 7 3 5 5 10 12 7 16 19 14 9 11 20 33 41 52 65 74 90 95 97 99 99 97 96 94 92 91 91 88 85 80 78 73 69 62 59 54 50 47 46 44 42 42 43 44 45 47
3 7 17 9 11 9 9 23 14 20 10 15 20 19 18 27 39 54 68 74 89 101 105 109 108 106 104 99 98 97 93 90 88 88 82 73 68 64 58 55 53 51 48 45 45 45 48 49 52
Wind_Direction_850mb
288 248 195 183 216 211 209 125 26 104 93 48 55 45 78 48 17 83 176 131 97 99 80 87 108 135 134 144 139 133 123 126 126 128 120 122 113 122 122 122 123 111 77 45 22 46 58 79 45
285 239 191 207 227 201 168 103 105 50 76 103 76 66 46 77 38 33 130 351 122 115 92 88 82 86 142 131 116 110 105 108 125 135 130 127 126 133 142 143 140 127 79 47 49 57 80 125 36
263 208 208 202 228 233 146 90 88 84 43 36 84 64 54 24 7 26 305 343 132 123 106 101 86 71 114 127 131 130 130 129 128 126 133 142 146 146 163 179 192 225 270 100 86 77 80 107 80
197 163 54 236 60 63 59 47 17 66 33 52 71 62 82 41 31 323 317 169 139 135 125 114 109 107 119 142 146 155 144 132 127 122 125 129 129 123 121 131 90 23 20 37 32 43 48 50 29
171 185 90 78 71 59 65 14 17 45 29 30 19 123 97 357 76 308 314 173 159 151 147 129 131 133 139 147 163 170 155 149 142 129 117 116 115 111 84 60 29 13 17 16 9 19 30 41 37
144 324 156 90 83 80 45 8 53 32 36 19 76 51 85 333 182 6 104 144 169 170 166 160 150 160 165 173 190 175 164 160 149 134 128 123 105 84 39 5 9 7 360 350 346 346 356 10 20
57 49 77 96 116 110 12 354 40 40 22 23 37 77 148 341 76 58 97 150 159 177 184 193 183 170 178 208 187 179 176 169 162 151 135 128 112 332 322 323 315 322 326 315 311 315 316 327 340
85 69 106 74 155 113 12 39 58 95 59 17 20 144 203 109 81 82 99 135 150 168 192 194 206 204 212 215 219 217 189 178 178 178 136 264 325 318 312 315 310 320 323 321 308 313 311 301 287
83 93 83 68 90 131 159 175 82 82 104 70 54 181 167 138 108 118 107 113 128 142 167 171 196 203 213 224 216 206 204 181 163 166 158 12 345 59 28 5 12 2 353 360 360 5 350 323 300
43 65 69 8 71 131 98 115 109 125 138 90 102 90 161 166 140 136 123 115 121 123 130 139 126 143 186 193 188 197 196 153 139 145 149 140 86 54 51 58 45 32 24 17 14 15 19 13 26
37 86 127 73 106 123 120 69 52 145 90 167 154 148 151 159 161 153 144 121 117 126 116 124 121 121 148 144 152 158 152 141 138 119 124 109 90 79 73 70 66 48 40 35 29 26 30 50 77
98 77 96 114 112 109 63 84 80 52 221 160 170 172 147 157 166 179 161 152 123 118 123 115 121 129 133 135 140 136 127 130 125 132 123 111 105 99 90 75 73 70 62 59 59 61 61 68 75
77 90 83 96 98 104 129 142 159 166 118 75 75 210 202 169 164 164 168 168 151 134 134 129 123 122 124 135 130 133 133 134 127 124 122 113 109 103 94 85 77 71 66 61 58 59 61 63 68
130 120 132 109 108 135 131 193 306 180 147 138 149 207 219 212 179 171 171 172 160 158 151 140 136 138 133 131 136 138 134 133 127 121 114 104 100 93 88 85 77 71 65 60 58 57 57 61 69
135 107 128 153 166 152 141 142 249 172 174 197 205 199 198 210 214 194 179 166 162 150 149 144 144 144 140 139 139 133 132 128 124 113 106 99 91 84 79 78 77 72 68 64 61 60 59 61 65
199 194 144 65 130 165 207 144 188 184 191 206 213 204 194 201 200 196 194 187 176 167 163 163 153 148 141 136 131 125 119 119 111 104 98 95 89 83 79 78 78 76 74 73 67 60 59 60 63
35 79 45 136 43 302 259 138 176 187 193 201 204 210 215 211 199 195 191 190 188 186 182 178 173 168 164 159 149 142 131 120 112 106 103 97 91 86 78 73 72 69 67 67 66 61 57 56 55
356 30 21 22 357 322 295 265 185 193 202 208 204 205 206 214 213 201 197 193 189 188 186 186 183 176 170 168 167 170 173 170 161 150 132 117 105 90 81 74 69 65 62 59 57 55 54 50 49
30 10 349 323 343 306 265 278 236 201 211 216 212 209 209 209 205 207 203 201 201 200 197 194 193 193 194 193 186 178 170 166 172 170 153 138 123 106 88 76 68 62 55 51 48 46 44 44 44
349 325 355 272 288 308 309 287 264 208 219 216 215 215 213 207 205 205 207 207 209 207 205 201 200 197 195 193 194 193 192 192 185 182 174 159 139 114 93 71 60 52 48 45 41 38 38 37 36
354 360 345 310 312 241 313 256 218 217 222 222 226 224 221 214 209 207 209 210 208 206 204 205 205 204 202 200 201 201 202 203 199 201 200 193 192 162 96 56 43 35 37 34 31 30 33 32 30
329 356 320 319 330 328 1 299 250 210 227 224 227 225 224 218 216 215 214 213 212 210 208 207 208 208 207 208 208 209 212 215 212 213 212 213 219 222 231 281 349 2 8 14 14 14 18 21 16
265 323 316 317 321 302 16 270 216 259 244 234 225 224 223 218 217 217 217 218 217 214 213 212 213 212 210 212 211 211 212 215 218 221 222 226 230 235 241 252 279 303 324 343 345 349 354 354 354
299 285 270 282 306 276 357 344 273 201 221 251 220 221 220 217 219 222 223 221 218 217 218 218 217 217 216 216 216 217 218 219 221 223 226 229 231 235 240 249 259 278 290 302 315 322 328 328 332
259 299 330 323 329 306 21 291 262 275 246 252 242 223 220 220 221 222 223 223 221 219 219 220 220 221 221 221 221 222 223 224 227 229 229 231 235 239 244 247 256 266 275 287 296 303 312 316 318
42 52 151 296 315 309 61 245 257 278 304 261 259 242 226 221 223 226 228 226 225 224 223 224 224 225 223 225 226 226 226 228 230 232 233 235 238 241 245 251 257 264 272 280 287 293 299 303 307
133 215 69 102 98 266 233 268 280 266 258 254 252 245 235 228 225 228 229 230 231 229 229 229 230 230 229 230 230 230 231 231 233 235 237 238 240 241 244 249 255 261 267 273 279 285 292 296 299
248 144 145 136 276 282 231 240 245 277 261 217 248 237 242 240 238 234 233 234 234 234 234 235 235 236 235 234 234 234 235 235 235 236 237 239 241 242 243 246 253 259 265 271 276 283 288 291 296
157 194 221 323 232 244 299 240 222 231 255 238 266 247 242 254 255 249 244 240 238 238 237 237 237 237 236 235 235 236 236 236 237 238 238 239 241 242 243 248 251 255 260 266 271 277 281 286 290
299 204 178 218 209 257 303 256 210 219 247 225 261 255 282 291 287 269 257 250 244 240 239 238 238 237 238 237 236 236 236 237 237 238 238 238 239 242 244 246 248 253 259 264 269 275 280 283 286